Weather History for Hammond, LA

Change the Weather History Date:

Saturday, September 22, 2012

  Actual Average (KMSY) Record (KMSY)
Temperature  
Mean Temperature 76 °F -  
Max Temperature 89 °F 86 °F 95 °F (1997)
Min Temperature 64 °F 68 °F 56 °F (1983)
Cooling Degree Days 12    
Growing Degree Days 26 (Base 50)    
Moisture  
Dew Point 69 °F    
Average Humidity 82    
Maximum Humidity 100    
Minimum Humidity 49    
Precipitation  
Precipitation 0.01 in - - ()
Sea Level Pressure  
Sea Level Pressure 30.07 in    
Wind  
Wind Speed 1 mph (NNW)    
Max Wind Speed 8 mph    
Max Gust Speed -    
Visibility 8 miles    
Events Fog    
Averages and records for this station are not official NWS values.
T = Trace of Precipitation, MM = Missing Value Source: NWS Daily Summary

Daily Weather History Graph

Daily Weather History Graph

Search for Another Location

Airport:

Trip Planner

Search our weather history database for the weather conditions in past years. The results will help you decide how hot, cold, wet, or windy it might be!

Date:

Astronomy

Sep. 22, 2012 Rise Set
Actual Time 6:50 AM CDT 6:57 PM CDT
Civil Twilight 6:26 AM CDT 7:21 PM CDT
Nautical Twilight 5:58 AM CDT 7:49 PM CDT
Astronomical Twilight 5:30 AM CDT 8:17 PM CDT
Moon 1:44 PM CDT (9/22) No Moon Set
Length of Visible Light 12h 55m
Length of Day
12h 07m
Waxing Crescent, 49% of the Moon is Illuminated
Sep 22
Waxing Crescent
Sep 22
First Quarter
Sep 29
Full
Oct 8
Last Quarter
Oct 15
New

Hourly Weather History & Observations

Time (CDT) Temp. Heat Index Dew Point Humidity Pressure Visibility Wind Dir Wind Speed Gust Speed Precip Events Conditions
12:15 AM 68.0 °F - 68.0 °F 100% 30.02 in 10.0 mi Calm Calm - N/A   Clear
12:35 AM 68.0 °F - 68.0 °F 100% 30.02 in 7.0 mi Calm Calm - N/A   Clear
12:55 AM 68.0 °F - 68.0 °F 100% 30.02 in 7.0 mi Calm Calm - N/A   Clear
1:15 AM 66.2 °F - 66.2 °F 100% 30.02 in 7.0 mi NNW 3.5 mph - N/A   Clear
1:35 AM 66.2 °F - 66.2 °F 100% 30.03 in 7.0 mi Calm Calm - N/A   Clear
1:55 AM 66.2 °F - 66.2 °F 100% 30.03 in 7.0 mi Calm Calm - N/A   Clear
2:15 AM 66.2 °F - 66.2 °F 100% 30.03 in 7.0 mi Calm Calm - N/A   Clear
2:55 AM 66.2 °F - 66.2 °F 100% 30.02 in 7.0 mi Calm Calm - N/A   Clear
3:15 AM 64.4 °F - 64.4 °F 100% 30.03 in 5.0 mi NNW 3.5 mph - N/A   Clear
3:35 AM 64.4 °F - 64.4 °F 100% 30.02 in 5.0 mi Calm Calm - N/A   Clear
3:55 AM 64.4 °F - 64.4 °F 100% 30.03 in 7.0 mi Calm Calm - N/A   Clear
4:15 AM 64.4 °F - 64.4 °F 100% 30.03 in 7.0 mi Calm Calm - N/A   Clear
4:35 AM 64.4 °F - 64.4 °F 100% 30.04 in 7.0 mi Calm Calm - N/A   Clear
4:55 AM 64.4 °F - 64.4 °F 100% 30.04 in 7.0 mi NNW 3.5 mph - N/A   Mostly Cloudy
5:15 AM 64.4 °F - 64.4 °F 100% 30.05 in 0.2 mi Calm Calm - N/A Fog Fog
5:35 AM 64.4 °F - 64.4 °F 100% 30.05 in 1.0 mi Calm Calm - N/A   Mostly Cloudy
5:55 AM 64.4 °F - 64.4 °F 100% 30.05 in 3.0 mi Calm Calm - N/A   Clear
6:15 AM 64.4 °F - 64.4 °F 100% 30.06 in 4.0 mi Calm Calm - N/A   Clear
6:35 AM 64.4 °F - 64.4 °F 100% 30.07 in 7.0 mi Calm Calm - N/A   Clear
6:55 AM 64.4 °F - 64.4 °F 100% 30.07 in 3.0 mi Calm Calm - N/A   Clear
7:15 AM 64.4 °F - 64.4 °F 100% 30.08 in 2.0 mi Calm Calm - N/A   Mostly Cloudy
7:35 AM 66.2 °F - 66.2 °F 100% 30.08 in 4.0 mi Calm Calm - N/A   Scattered Clouds
7:55 AM 68.0 °F - 68.0 °F 100% 30.09 in 3.0 mi Calm Calm - N/A   Scattered Clouds
8:15 AM 71.6 °F - 69.8 °F 94% 30.09 in 4.0 mi Calm Calm - N/A   Clear
8:35 AM 73.4 °F - 71.6 °F 94% 30.10 in 5.0 mi Calm Calm - N/A   Clear
8:55 AM 75.2 °F - 73.4 °F 94% 30.10 in 3.0 mi Calm Calm - N/A   Clear
9:15 AM 77.0 °F - 73.4 °F 89% 30.10 in 3.0 mi Calm Calm - N/A   Clear
9:55 AM 80.6 °F 85.4 °F 73.4 °F 79% 30.11 in 10.0 mi North 4.6 mph - N/A   Clear
10:15 AM 80.6 °F 85.4 °F 73.4 °F 79% 30.11 in 10.0 mi NNW 4.6 mph - N/A   Clear
10:35 AM 82.4 °F 87.2 °F 71.6 °F 70% 30.11 in 10.0 mi Calm Calm - N/A   Clear
10:55 AM 84.2 °F 88.4 °F 69.8 °F 62% 30.11 in 10.0 mi Calm Calm - N/A   Clear
11:15 AM 84.2 °F 89.6 °F 71.6 °F 66% 30.11 in 10.0 mi NNW 3.5 mph - N/A   Clear
11:55 AM 86.0 °F 90.4 °F 69.8 °F 58% 30.10 in 10.0 mi North 5.8 mph - N/A   Clear
12:15 PM 87.8 °F 92.6 °F 69.8 °F 55% 30.10 in 10.0 mi North 8.1 mph - N/A   Clear
12:35 PM 87.8 °F 92.6 °F 69.8 °F 55% 30.10 in 10.0 mi North 4.6 mph - N/A   Clear
12:55 PM 86.0 °F 89.4 °F 68.0 °F 55% 30.09 in 10.0 mi North 4.6 mph - N/A   Clear
1:15 PM 87.8 °F 91.4 °F 68.0 °F 52% 30.08 in 10.0 mi NNW 5.8 mph - N/A   Clear
1:35 PM 89.6 °F 93.4 °F 68.0 °F 49% 30.08 in 10.0 mi NNW 3.5 mph - N/A   Clear
1:55 PM 89.6 °F 93.4 °F 68.0 °F 49% 30.07 in 10.0 mi NW 5.8 mph - N/A   Scattered Clouds
2:15 PM 89.6 °F 93.4 °F 68.0 °F 49% 30.06 in 10.0 mi NNE 4.6 mph - N/A   Scattered Clouds
2:35 PM 89.6 °F 94.7 °F 69.8 °F 52% 30.05 in 10.0 mi North 3.5 mph - N/A   Scattered Clouds
2:55 PM 89.6 °F 93.4 °F 68.0 °F 49% 30.05 in 10.0 mi Calm Calm - N/A   Clear
3:15 PM 89.6 °F 93.4 °F 68.0 °F 49% 30.05 in 10.0 mi NNW 6.9 mph - N/A   Scattered Clouds
3:35 PM 89.6 °F 93.4 °F 68.0 °F 49% 30.04 in 10.0 mi Calm Calm - N/A   Clear
3:55 PM 89.6 °F 94.7 °F 69.8 °F 52% 30.04 in 10.0 mi Calm Calm - N/A   Clear
4:15 PM 89.6 °F 93.4 °F 68.0 °F 49% 30.04 in 10.0 mi NW 6.9 mph - N/A   Clear
4:35 PM 89.6 °F 93.4 °F 68.0 °F 49% 30.04 in 10.0 mi NW 4.6 mph - N/A   Clear
4:55 PM 87.8 °F 92.6 °F 69.8 °F 55% 30.04 in 10.0 mi NNW 4.6 mph - N/A   Clear
5:15 PM 87.8 °F 92.6 °F 69.8 °F 55% 30.05 in 10.0 mi Calm Calm - N/A   Clear
5:55 PM 86.0 °F 91.8 °F 71.6 °F 62% 30.05 in 10.0 mi Calm Calm - N/A   Clear
6:15 PM 84.2 °F 90.9 °F 73.4 °F 70% 30.05 in 10.0 mi Calm Calm - N/A   Clear
6:35 PM 82.4 °F 88.2 °F 73.4 °F 74% 30.06 in 10.0 mi Calm Calm - N/A   Clear
7:15 PM 78.8 °F - 73.4 °F 83% 30.07 in 10.0 mi Calm Calm - N/A   Clear
7:35 PM 77.0 °F - 73.4 °F 89% 30.07 in 10.0 mi Calm Calm - N/A   Clear
7:55 PM 75.2 °F - 71.6 °F 89% 30.08 in 10.0 mi Calm Calm - N/A   Clear
8:15 PM 75.2 °F - 71.6 °F 89% 30.08 in 10.0 mi Calm Calm - N/A   Clear
8:35 PM 73.4 °F - 71.6 °F 94% 30.09 in 10.0 mi Calm Calm - N/A   Clear
8:55 PM 75.2 °F - 71.6 °F 89% 30.09 in 10.0 mi Calm Calm - N/A   Clear
9:15 PM 73.4 °F - 71.6 °F 94% 30.10 in 10.0 mi Calm Calm - N/A   Clear
9:35 PM 73.4 °F - 71.6 °F 94% 30.10 in 10.0 mi Calm Calm - N/A   Clear
9:55 PM 71.6 °F - 71.6 °F 100% 30.11 in 10.0 mi Calm Calm - N/A   Clear
10:15 PM 71.6 °F - 71.6 °F 100% 30.11 in 7.0 mi Calm Calm - N/A   Clear
10:55 PM 71.6 °F - 71.6 °F 100% 30.11 in 7.0 mi Calm Calm - 0.01 in   Clear
11:35 PM 71.6 °F - 69.8 °F 94% 30.11 in 5.0 mi Calm Calm - N/A   Clear
11:55 PM 69.8 °F - 69.8 °F 100% 30.11 in 7.0 mi Calm Calm - N/A   Clear